Wind_Speed
19 17 15 14 13 12 14 19 17 16 26 27 24 26 21 28 30 32 36 40 42 41 39 37 34 30 33 33 34 35 34 34 34 33 35 39 42 38 36 35 37 34 34 34 34 36 34 40 44
23 20 16 15 16 15 16 19 10 7 21 25 24 28 24 22 28 30 36 38 37 39 36 33 34 38 40 38 38 38 38 36 36 38 40 40 42 41 41 40 42 41 40 41 42 45 48 49 46
23 22 20 16 18 15 20 23 28 27 20 33 32 30 29 26 25 30 34 34 39 34 36 42 44 43 42 41 40 37 36 39 40 42 41 42 41 40 40 45 46 43 47 47 50 49 53 51 52
23 23 22 19 19 18 22 24 25 23 31 38 34 32 31 29 26 26 33 36 36 38 40 42 42 41 38 35 34 38 43 43 43 44 45 44 43 43 46 46 47 49 49 51 52 50 50 51 53
25 24 22 18 17 20 24 25 21 24 26 31 39 37 40 36 31 28 33 37 40 41 41 40 39 37 38 37 42 46 45 46 45 45 44 46 45 45 46 48 50 51 53 55 53 52 53 53 51
25 23 20 19 15 20 22 10 28 25 26 29 35 37 36 33 32 32 31 38 38 42 43 42 43 42 40 45 50 49 48 47 47 47 47 46 47 49 50 50 50 50 50 50 48 47 48 49 48
23 23 25 21 22 24 29 28 34 30 43 28 28 25 26 28 30 30 30 33 35 46 49 48 48 50 50 51 50 47 46 45 44 44 44 45 47 48 48 47 46 45 45 47 47 48 50 51 51
25 25 25 20 23 24 27 32 26 27 38 33 26 35 31 24 27 27 27 32 34 36 38 40 42 42 44 45 44 43 44 43 43 45 45 45 44 43 44 45 46 47 48 50 51 52 53 54 55
24 26 23 20 24 23 26 24 24 26 23 24 27 30 29 31 28 28 26 27 32 31 35 36 38 39 39 38 38 40 41 41 40 41 43 45 47 48 49 50 51 51 52 52 54 55 55 54 54
24 24 22 21 22 20 26 22 22 17 14 25 32 16 20 20 21 28 25 24 28 29 29 30 31 32 33 34 34 35 37 39 41 44 46 48 49 50 51 52 54 54 55 55 56 57 58 58 57
23 23 23 23 22 23 29 23 26 24 30 22 25 18 22 19 17 18 21 24 25 28 31 28 24 29 30 31 34 36 38 40 43 45 48 51 54 55 58 59 59 59 60 60 59 60 59 57 57
21 21 22 22 21 28 30 29 28 30 29 28 22 29 15 16 22 33 29 31 24 22 22 22 26 31 33 35 36 38 42 44 48 50 54 58 60 61 62 62 62 62 62 61 61 60 58 63 67
20 20 20 21 20 23 28 25 32 37 36 30 21 21 22 30 36 37 35 26 16 15 18 22 25 30 31 33 36 41 44 47 51 53 58 61 64 62 62 61 61 62 62 62 64 67 68 70 70
20 19 19 20 19 20 22 19 20 35 42 26 20 29 32 33 33 34 25 17 17 16 17 21 26 29 35 36 37 42 47 49 56 60 61 62 64 64 63 62 64 70 72 70 68 71 73 73 73
20 19 19 19 19 18 19 16 12 18 41 36 35 26 30 38 28 28 19 20 20 18 19 22 31 29 37 42 44 47 49 50 56 60 65 66 66 65 63 65 71 75 74 75 76 77 78 78 76
22 19 19 19 19 18 18 15 10 14 40 34 32 25 28 25 22 20 24 22 24 26 29 25 22 43 52 48 47 50 51 55 58 64 65 69 66 71 78 79 80 80 80 80 80 81 80 80 76
24 22 21 21 19 20 19 18 17 17 27 32 32 30 25 20 18 22 27 28 36 37 42 34 44 47 50 53 52 61 62 61 67 69 74 75 78 80 86 90 86 86 84 81 81 82 82 82 82
27 25 25 23 22 19 20 20 21 22 24 27 29 23 20 21 18 20 25 25 41 34 39 47 35 52 51 55 62 66 66 65 68 71 75 79 83 88 89 88 86 86 85 85 85 85 86 84 80
30 30 28 26 23 22 21 20 20 21 23 26 21 18 20 19 20 22 26 20 22 20 29 32 49 50 41 56 62 62 66 70 75 80 81 85 90 90 89 89 91 91 87 83 80 77 76 73 68
34 32 30 28 25 25 23 21 20 20 23 24 18 20 22 22 22 27 26 28 18 21 26 40 48 50 59 65 65 71 73 74 84 87 89 92 93 91 92 90 86 81 79 76 75 74 73 71 66
34 35 33 31 26 25 28 22 22 21 20 19 18 24 25 24 30 34 33 31 32 37 45 53 56 62 66 71 77 76 81 81 87 88 93 94 93 89 85 84 82 80 78 74 72 70 67 63 62
34 35 34 33 30 29 27 25 24 24 22 18 20 25 22 27 32 35 39 41 39 45 53 58 57 68 69 74 80 87 92 91 90 94 93 91 86 82 80 81 79 75 72 68 63 59 55 54 52
38 36 35 36 33 29 29 27 28 24 25 21 31 25 23 27 30 36 40 45 50 51 57 59 66 73 75 81 87 89 87 91 93 92 88 83 80 77 75 77 79 73 66 60 55 49 47 42 42
39 37 36 36 34 30 35 26 30 25 21 24 31 32 26 27 33 36 42 48 51 55 61 66 70 74 80 83 85 84 87 89 90 87 81 77 74 72 71 69 68 61 55 48 43 37 36 37 42
39 39 37 36 35 37 35 32 32 26 24 29 35 35 37 38 37 40 43 46 50 54 59 64 69 76 79 82 83 85 87 87 82 77 72 70 67 68 69 66 60 51 46 39 34 37 40 40 40
41 39 38 39 40 39 37 36 32 29 29 29 32 36 39 41 44 46 47 49 51 55 62 67 73 76 79 82 83 84 83 78 72 70 68 65 67 67 69 64 57 49 40 36 39 45 43 42 37
45 40 47 39 40 39 43 43 35 32 32 33 36 39 41 44 46 47 49 51 55 60 66 72 73 77 80 80 81 79 74 69 68 65 65 65 68 68 70 63 56 48 45 41 42 39 39 40 37
47 47 47 43 44 44 49 45 42 36 33 37 39 38 43 47 46 48 53 55 59 65 68 71 76 77 77 78 74 71 67 68 64 65 66 68 72 73 71 59 54 47 42 41 40 40 44 42 33
52 48 51 50 45 47 50 48 44 41 38 36 40 42 44 48 53 55 58 58 62 62 66 76 77 75 75 71 67 65 64 63 63 65 68 71 75 73 67 58 55 43 43 46 45 46 46 42 34
54 51 52 51 51 51 50 50 46 49 41 39 40 44 49 53 60 62 54 51 54 65 80 80 75 74 69 65 64 63 63 62 64 67 71 74 76 71 61 57 49 41 43 47 49 48 43 39 34
Wind_Direction
269 257 255 261 262 244 235 232 258 272 262 272 274 272 269 260 249 252 255 258 264 267 268 274 277 276 280 282 284 282 285 285 287 288 289 288 291 289 287 286 288 287 290 290 288 280 279 286 280
263 262 254 259 263 251 224 198 177 237 286 295 287 280 273 275 260 258 261 262 264 265 266 270 279 285 282 281 281 285 287 284 284 292 290 287 289 285 283 284 290 283 284 286 286 283 282 285 278
257 260 254 260 255 248 240 232 246 258 266 272 281 284 276 273 274 272 264 266 262 259 261 272 278 282 281 282 283 286 290 289 288 287 286 287 286 283 281 284 285 281 284 284 286 282 282 282 279
254 255 255 264 262 238 222 226 237 248 246 256 276 288 282 275 269 262 272 276 276 273 269 272 278 286 284 283 287 290 291 289 287 286 284 286 286 284 281 285 284 285 285 287 287 282 280 278 276
252 255 261 267 250 240 228 228 246 246 264 261 271 284 288 274 267 255 251 263 272 275 280 286 289 287 286 286 289 293 289 289 290 288 286 286 286 287 286 287 286 284 283 284 282 280 278 277 275
253 258 265 255 250 236 214 223 237 253 273 267 277 276 275 273 271 271 261 259 268 272 280 282 285 288 284 283 289 291 291 290 290 289 289 288 287 287 286 286 285 284 284 284 282 280 279 278 278
257 256 252 262 247 236 212 212 236 237 265 271 275 288 288 288 281 273 273 272 267 264 269 274 276 280 281 287 289 291 293 292 292 292 291 290 289 289 290 289 288 286 284 282 282 282 282 281 281
258 256 262 266 260 251 228 229 232 206 262 269 265 292 303 305 295 292 283 279 278 278 280 282 283 284 285 287 290 293 292 293 294 293 294 294 293 292 291 289 289 288 287 286 285 284 283 282 282
258 261 265 266 257 254 249 246 237 223 280 282 275 297 300 297 298 295 294 290 288 285 286 287 289 289 290 294 295 295 294 297 299 300 299 298 295 293 292 290 290 289 286 284 284 283 283 283 283
258 260 263 254 249 245 248 245 226 223 277 286 285 308 306 303 315 317 298 295 293 294 292 293 296 299 298 294 294 298 301 302 303 301 300 301 300 301 297 294 292 291 288 286 285 284 284 283 283
255 259 257 252 239 236 243 240 241 220 185 238 278 287 314 301 309 307 300 295 292 295 300 301 302 295 295 300 303 303 305 305 305 307 309 308 305 304 301 300 296 293 289 288 288 286 285 285 282
256 255 252 251 243 240 240 235 220 216 213 245 283 274 277 280 299 294 296 307 305 302 304 301 298 300 304 306 308 306 306 307 308 310 311 311 309 306 301 298 295 291 289 289 288 290 287 284 285
255 252 250 252 245 241 250 243 232 210 216 235 243 246 282 284 279 282 295 300 304 295 284 291 297 298 299 301 304 306 309 312 311 310 310 309 307 305 300 299 298 295 294 293 293 291 288 287 289
253 249 252 251 247 247 254 254 237 229 209 211 229 264 283 279 279 279 286 284 284 269 279 289 297 297 300 304 305 308 309 311 311 312 313 312 309 304 304 303 300 298 299 297 294 293 292 292 291
254 255 254 249 247 246 252 257 215 219 201 209 227 248 261 275 272 274 278 271 266 274 280 296 302 309 314 309 305 305 310 314 313 311 313 310 307 302 300 301 301 300 299 298 297 297 295 293 294
256 250 253 252 247 245 246 249 223 208 206 222 230 244 264 268 275 292 281 278 279 284 299 314 319 323 319 316 314 315 313 313 313 312 312 311 307 303 304 306 304 301 300 298 297 295 295 293 292
250 251 251 249 247 247 244 245 240 217 213 230 233 246 249 259 260 263 273 307 284 282 294 295 312 308 317 322 317 316 314 314 315 315 317 313 311 308 307 306 305 303 300 298 296 295 294 295 294
253 256 255 255 251 245 245 246 245 241 236 241 245 256 263 249 243 267 290 306 311 281 291 292 301 312 316 312 311 312 313 314 317 313 312 310 309 307 305 303 301 298 298 297 296 294 294 293 294
249 254 258 259 257 252 245 244 243 248 246 249 257 259 250 256 270 279 279 272 268 245 268 298 313 307 298 300 312 311 314 314 313 313 309 307 306 304 303 301 301 301 301 299 298 297 295 297 298
252 256 257 258 257 260 252 249 244 242 248 251 251 251 252 256 253 260 268 285 243 254 287 283 294 297 305 311 310 311 310 307 309 311 308 306 306 306 305 303 301 302 302 301 300 297 297 298 297
256 258 259 260 258 258 265 261 258 254 253 247 238 244 257 266 263 272 279 296 258 273 286 277 302 304 308 308 307 306 308 307 308 307 309 308 307 305 305 306 306 304 304 302 300 299 298 296 295
253 256 259 262 260 257 265 265 265 270 269 252 247 250 254 267 275 282 289 292 283 285 270 290 294 298 302 303 306 310 310 309 308 309 308 307 307 308 306 306 307 308 306 303 302 300 296 293 295
253 254 258 260 263 266 266 260 261 262 268 269 273 259 262 272 279 283 288 291 290 287 287 290 298 304 306 307 310 309 307 308 309 310 309 309 308 309 310 309 312 312 311 308 304 299 296 297 298
254 257 258 261 264 266 261 258 260 266 269 259 261 278 276 275 281 285 289 293 293 296 299 301 305 307 305 305 306 307 308 309 309 310 310 311 311 312 313 313 313 313 313 311 308 308 303 298 300
255 259 259 263 263 259 263 265 260 269 265 265 269 275 279 285 286 288 290 292 293 295 297 299 300 302 304 306 307 309 310 310 310 311 311 311 314 320 319 318 317 316 310 308 309 313 305 299 303
254 256 259 258 259 263 266 264 265 265 268 268 267 270 273 279 284 284 286 289 292 295 297 300 302 305 307 308 310 310 310 311 311 310 311 315 318 318 322 318 317 312 304 298 307 305 303 305 297
251 255 253 258 260 263 264 265 267 269 273 274 274 279 283 281 283 287 293 295 298 300 302 304 307 308 309 310 310 312 312 312 310 311 315 317 319 319 320 316 315 309 302 294 294 304 308 304 294
252 250 257 257 258 261 265 269 274 273 276 278 281 285 285 287 293 293 294 299 302 303 304 307 309 309 310 311 313 314 313 312 313 317 319 320 319 319 319 314 311 305 302 300 302 305 307 298 295
249 252 253 256 258 261 264 270 277 277 276 280 286 286 290 293 290 294 297 301 302 302 306 310 311 310 312 314 315 313 313 315 318 320 320 320 320 320 318 314 310 300 292 297 298 299 303 305 293
249 255 253 255 259 260 266 274 275 278 282 283 288 289 290 293 297 295 290 296 302 304 312 312 311 313 315 315 315 317 319 321 322 321 321 320 321 321 319 315 308 297 289 294 299 299 304 305 297
Height
10979 10981 10984 10986 10987 10988 10988 10986 10984 10981 10989 10991 10990 10990 10992 10993 10994 10993 10993 10994 10995 10996 10996 10996 10995 10996 10995 10993 10991 10990 10988 10986 10984 10982 10980 10979 10977 10976 10975 10973 10971 10970 10968 10966 10964 10962 10960 10960 10958
10975 10977 10980 10982 10983 10982 10983 10979 10977 10978 10979 10984 10987 10986 10987 10988 10989 10990 10988 10989 10990 10992 10992 10992 10992 10991 10989 10988 10986 10984 10983 10981 10979 10976 10974 10972 10971 10969 10967 10966 10965 10963 10961 10959 10957 10955 10953 10950 10949
10971 10973 10976 10979 10979 10980 10978 10977 10974 10976 10981 10979 10982 10984 10985 10985 10986 10986 10985 10984 10987 10989 10989 10989 10988 10987 10985 10983 10980 10978 10976 10975 10972 10969 10967 10965 10963 10962 10960 10958 10956 10954 10953 10951 10948 10946 10943 10940 10938
10968 10968 10971 10975 10976 10975 10973 10974 10975 10976 10979 10976 10981 10982 10982 10982 10981 10982 10980 10980 10984 10983 10984 10984 10984 10981 10979 10977 10974 10973 10970 10967 10965 10962 10960 10958 10956 10954 10953 10950 10949 10947 10944 10941 10938 10935 10932 10929 10927
10963 10965 10967 10971 10973 10973 10973 10973 10974 10973 10975 10976 10975 10976 10977 10975 10978 10980 10978 10974 10981 10979 10979 10979 10978 10976 10974 10972 10969 10967 10964 10961 10959 10957 10954 10951 10949 10947 10945 10942 10940 10937 10934 10931 10927 10924 10922 10919 10916
10960 10962 10964 10966 10970 10969 10971 10972 10970 10970 10971 10975 10968 10965 10968 10971 10972 10975 10977 10971 10976 10974 10975 10975 10974 10972 10970 10967 10964 10961 10959 10956 10953 10950 10947 10944 10941 10939 10936 10933 10929 10926 10923 10920 10917 10914 10911 10908 10905
10956 10957 10956 10959 10961 10961 10962 10964 10962 10966 10960 10968 10960 10958 10966 10969 10968 10970 10973 10969 10970 10971 10972 10970 10969 10967 10964 10962 10959 10956 10953 10950 10946 10943 10940 10937 10934 10931 10928 10924 10921 10918 10915 10911 10908 10904 10900 10896 10894
10951 10952 10952 10956 10958 10958 10957 10961 10963 10960 10952 10960 10962 10960 10960 10964 10963 10965 10968 10964 10966 10966 10965 10964 10962 10961 10959 10957 10954 10950 10947 10943 10940 10937 10934 10930 10926 10923 10919 10915 10911 10908 10905 10900 10897 10892 10888 10885 10882
10947 10947 10948 10952 10951 10953 10951 10954 10959 10958 10954 10956 10961 10961 10955 10959 10958 10959 10960 10960 10956 10960 10959 10959 10957 10955 10954 10951 10947 10943 10940 10937 10934 10931 10928 10924 10919 10916 10911 10906 10902 10898 10893 10889 10884 10880 10876 10873 10870
10943 10943 10944 10946 10945 10947 10945 10951 10954 10951 10951 10951 10948 10951 10952 10952 10955 10955 10955 10955 10951 10952 10953 10953 10951 10948 10947 10943 10940 10937 10935 10932 10929 10925 10921 10915 10911 10906 10901 10896 10890 10886 10880 10875 10871 10867 10862 10858 10856
10939 10939 10938 10939 10942 10941 10941 10946 10946 10951 10946 10947 10947 10948 10945 10949 10949 10949 10948 10948 10948 10946 10945 10947 10947 10943 10943 10941 10937 10932 10927 10925 10923 10918 10913 10906 10901 10897 10888 10881 10876 10872 10865 10861 10857 10853 10849 10844 10840
10935 10934 10933 10934 10936 10934 10936 10938 10943 10950 10946 10944 10945 10944 10941 10943 10942 10941 10941 10942 10942 10943 10942 10941 10940 10936 10937 10934 10931 10927 10923 10918 10912 10909 10903 10897 10890 10884 10878 10873 10867 10860 10854 10850 10843 10840 10836 10829 10824
10930 10931 10929 10928 10930 10931 10930 10934 10937 10942 10942 10942 10944 10944 10939 10936 10936 10936 10937 10936 10936 10935 10935 10936 10936 10932 10930 10927 10924 10920 10914 10908 10901 10900 10895 10887 10880 10873 10863 10859 10852 10845 10841 10836 10830 10822 10817 10811 10806
10926 10927 10926 10925 10925 10926 10923 10930 10935 10934 10936 10940 10940 10935 10931 10928 10934 10934 10931 10928 10926 10924 10925 10924 10924 10924 10922 10920 10916 10911 10906 10903 10889 10881 10879 10876 10866 10856 10851 10845 10837 10829 10823 10817 10812 10805 10796 10791 10785
10921 10923 10923 10922 10922 10923 10922 10924 10929 10929 10932 10934 10934 10931 10927 10928 10928 10925 10924 10922 10920 10920 10916 10914 10914 10913 10913 10911 10908 10902 10896 10895 10885 10869 10863 10860 10854 10844 10838 10834 10825 10814 10807 10799 10791 10784 10776 10770 10766
10915 10918 10919 10918 10919 10919 10920 10921 10924 10927 10928 10928 10929 10928 10924 10925 10923 10922 10920 10921 10919 10918 10913 10908 10906 10908 10906 10898 10893 10888 10888 10884 10875 10864 10853 10847 10840 10829 10821 10815 10808 10797 10789 10781 10773 10763 10756 10750 10748
10908 10911 10913 10914 10916 10917 10916 10918 10920 10923 10924 10923 10922 10919 10922 10924 10922 10917 10912 10913 10912 10910 10911 10901 10900 10899 10892 10885 10881 10876 10871 10867 10860 10848 10834 10826 10821 10813 10801 10793 10785 10775 10767 10761 10752 10742 10734 10729 10724
10903 10906 10908 10910 10911 10913 10914 10914 10916 10918 10920 10918 10914 10918 10917 10915 10915 10914 10910 10908 10913 10902 10904 10905 10899 10893 10883 10873 10868 10863 10857 10850 10844 10836 10823 10815 10808 10801 10789 10777 10769 10757 10748 10741 10730 10722 10710 10705 10701
10896 10899 10901 10903 10906 10908 10910 10912 10913 10912 10913 10911 10913 10909 10909 10909 10907 10906 10904 10903 10903 10898 10894 10890 10894 10893 10883 10872 10861 10853 10844 10836 10829 10820 10811 10806 10796 10786 10774 10759 10746 10733 10725 10716 10707 10699 10688 10681 10680
10888 10892 10894 10897 10900 10901 10904 10907 10908 10908 10907 10905 10909 10904 10904 10905 10905 10902 10900 10898 10895 10892 10890 10889 10884 10881 10873 10861 10857 10848 10839 10827 10817 10808 10797 10789 10778 10765 10751 10738 10726 10715 10704 10694 10686 10679 10672 10664 10661
10880 10883 10886 10889 10894 10896 10895 10900 10901 10902 10901 10903 10906 10902 10900 10901 10896 10890 10887 10884 10884 10882 10880 10877 10873 10867 10858 10850 10845 10838 10827 10819 10808 10795 10783 10771 10759 10745 10731 10716 10706 10694 10685 10676 10667 10659 10653 10647 10641
10873 10875 10878 10880 10885 10888 10891 10893 10894 10894 10894 10896 10899 10898 10899 10894 10889 10886 10882 10878 10878 10875 10873 10868 10862 10856 10848 10842 10831 10817 10806 10795 10790 10780 10769 10757 10741 10728 10716 10700 10688 10677 10667 10658 10651 10644 10637 10632 10627
10864 10868 10869 10871 10875 10880 10881 10886 10887 10890 10888 10891 10883 10892 10894 10890 10886 10881 10877 10872 10870 10869 10865 10860 10851 10838 10831 10823 10810 10807 10797 10784 10773 10762 10748 10736 10724 10713 10699 10684 10669 10657 10649 10639 10634 10629 10624 10621 10616
10855 10859 10861 10863 10867 10872 10868 10877 10880 10883 10886 10886 10878 10880 10886 10887 10883 10879 10872 10865 10859 10853 10848 10843 10835 10826 10823 10818 10809 10797 10785 10772 10757 10743 10731 10718 10706 10698 10686 10673 10659 10647 10636 10629 10622 10619 10615 10611 10607
10848 10850 10854 10856 10858 10857 10862 10867 10872 10878 10881 10878 10874 10874 10873 10873 10874 10871 10867 10862 10858 10853 10847 10842 10836 10827 10818 10806 10794 10781 10767 10755 10741 10729 10718 10706 10693 10681 10668 10659 10646 10638 10629 10622 10616 10612 10608 10603 10599
10841 10844 10846 10847 10847 10850 10853 10857 10866 10871 10870 10871 10872 10871 10869 10866 10863 10860 10859 10857 10853 10847 10840 10833 10825 10814 10801 10789 10777 10766 10754 10741 10729 10716 10705 10694 10681 10670 10657 10647 10637 10629 10621 10614 10609 10604 10599 10594 10590
10832 10838 10831 10840 10840 10842 10840 10844 10856 10863 10864 10864 10863 10861 10860 10857 10855 10852 10848 10844 10841 10834 10826 10816 10808 10797 10787 10775 10764 10752 10739 10728 10717 10705 10693 10681 10670 10658 10647 10635 10626 10619 10612 10604 10598 10595 10591 10586 10583
10823 10825 10825 10831 10831 10833 10829 10836 10842 10852 10856 10854 10854 10854 10848 10843 10841 10839 10836 10831 10827 10820 10813 10803 10796 10785 10775 10762 10750 10737 10725 10713 10703 10691 10679 10668 10656 10645 10633 10622 10615 10607 10601 10596 10591 10587 10582 10577 10574
10810 10816 10816 10818 10824 10823 10822 10825 10828 10838 10842 10847 10844 10841 10836 10831 10827 10826 10822 10816 10811 10805 10802 10793 10783 10772 10761 10747 10736 10725 10715 10703 10690 10679 10668 10656 10644 10631 10619 10609 10601 10595 10590 10587 10580 10576 10572 10567 10564
10800 10803 10807 10810 10811 10813 10814 10815 10820 10818 10829 10835 10836 10827 10824 10819 10812 10812 10807 10802 10795 10792 10786 10779 10769 10757 10746 10734 10723 10711 10701 10690 10680 10668 10657 10644 10631 10618 10606 10596 10587 10583 10579 10576 10570 10565 10562 10558 10555